Wheeling, WV

3:05 PM EST on December 05, 2019 (GMT -0500)
Wheeling-Ohio County

Weather History for KHLG - October, 2019

Change the Weather History Date:

Tuesday, October 29, 2019

  Actual Average Record
Temperature  
Mean Temperature 60 °F 49 °F  
Max Temperature 70 °F 58 °F 78 °F (1946)
Min Temperature 50 °F 40 °F 19 °F (1925)
Degree Days  
Heating Degree Days 5 16  
Month to date heating degree days 248 340  
Since 1 July heating degree days 249 441  
Cooling Degree Days 0 0  
Month to date cooling degree days 40 10  
Year to date cooling degree days 986 688  
Growing Degree Days 10 (Base 50)    
Moisture  
Dew Point 48 °F    
Average Humidity 67    
Maximum Humidity 80    
Minimum Humidity 53    
Precipitation  
Precipitation 0.00 in 0.08 in 1.09 in (2012)
Month to date precipitation 3.84 2.41  
Year to date precipitation 31.82 32.18  
Sea Level Pressure  
Sea Level Pressure 30.15 in    
Wind  
Wind Speed 8 mph (SW)    
Max Wind Speed 21 mph    
Max Gust Speed 32 mph    
Visibility 10 miles    
Events      
T = Trace of Precipitation, MM = Missing Value Source: NWS Daily Summary

Daily Weather History Graph

Daily Weather History Graph

Search for Another Location

Airport or City:

Astronomy

Oct. 29, 2019 Rise Set
Actual Time 7:48 AM EDT 6:23 PM EDT
Civil Twilight 7:20 AM EDT 6:51 PM EDT
Nautical Twilight 6:48 AM EDT 7:23 PM EDT
Astronomical Twilight 6:16 AM EDT 7:55 PM EDT
Moon 9:20 AM EDT (10/29) 7:47 PM EDT (10/29)
Length of Visible Light 11h 31m
Length of Day
10h 35m
Waxing Crescent, 3% of the Moon is Illuminated
Oct 29
Waxing Crescent
Nov 4
First Quarter
Nov 12
Full
Nov 19
Last Quarter
Nov 26
New

Hourly Weather History & Observations

Time (EDT) Temp. Dew Point Humidity Pressure Visibility Wind Dir Wind Speed Gust Speed Precip Events Conditions
12:53 AM 53.1 °F 44.1 °F 71% 30.08 in 10.0 mi SSW 3.5 mph - N/A   Clear
1:53 AM 52.0 °F 43.0 °F 71% 30.08 in 10.0 mi SSE 3.5 mph - N/A   Clear
2:53 AM 51.1 °F 43.0 °F 74% 30.08 in 10.0 mi SSE 6.9 mph - N/A   Clear
3:53 AM 53.1 °F 44.1 °F 71% 30.07 in 10.0 mi SSE 6.9 mph - N/A   Clear
4:53 AM 55.0 °F 46.0 °F 72% 30.07 in 10.0 mi South 5.8 mph - N/A   Clear
5:53 AM 55.0 °F 46.0 °F 72% 30.09 in 10.0 mi SSE 8.1 mph - N/A   Clear
6:53 AM 54.0 °F 46.0 °F 75% 30.10 in 10.0 mi SSE 4.6 mph - N/A   Clear
7:53 AM 54.0 °F 46.9 °F 77% 30.12 in 10.0 mi SSE 3.5 mph - N/A   Clear
8:53 AM 55.9 °F 48.9 °F 77% 30.14 in 10.0 mi South 6.9 mph - N/A   Clear
9:53 AM 60.1 °F 50.0 °F 69% 30.15 in 10.0 mi South 11.5 mph - N/A   Scattered Clouds
10:53 AM 63.0 °F 51.1 °F 65% 30.15 in 10.0 mi SSW 9.2 mph 20.7 mph N/A   Partly Cloudy
11:53 AM 66.0 °F 52.0 °F 60% 30.17 in 10.0 mi SW 12.7 mph 19.6 mph N/A   Clear
12:53 PM 69.1 °F 52.0 °F 54% 30.16 in 10.0 mi SSW 16.1 mph 20.7 mph N/A   Partly Cloudy
1:53 PM 70.0 °F 52.0 °F 53% 30.15 in 10.0 mi SSW 20.7 mph 28.8 mph N/A   Partly Cloudy
2:53 PM 69.1 °F 51.1 °F 53% 30.15 in 10.0 mi West 12.7 mph 16.1 mph N/A   Overcast
3:53 PM 68.0 °F 51.1 °F 55% 30.14 in 10.0 mi WSW 9.2 mph - N/A   Scattered Clouds
4:53 PM 66.9 °F 52.0 °F 59% 30.15 in 10.0 mi West 10.4 mph - N/A   Clear
5:53 PM 64.0 °F 51.1 °F 63% 30.17 in 10.0 mi West 11.5 mph - N/A   Clear
6:53 PM 61.0 °F 51.1 °F 70% 30.19 in 10.0 mi West 5.8 mph - N/A   Clear
7:53 PM 59.0 °F 50.0 °F 72% 30.20 in 10.0 mi WNW 6.9 mph - N/A   Clear
8:53 PM 55.9 °F 48.9 °F 77% 30.23 in 10.0 mi NW 8.1 mph - N/A   Clear
9:53 PM 55.0 °F 48.0 °F 77% 30.25 in 10.0 mi WNW 5.8 mph - N/A   Clear
10:53 PM 54.0 °F 48.0 °F 80% 30.24 in 10.0 mi NNW 5.8 mph - N/A   Clear
11:53 PM 53.1 °F 46.9 °F 80% 30.24 in 10.0 mi NNE 3.5 mph - N/A   Clear